Date,TemperatureHighF,TemperatureAvgF,TemperatureLowF,DewpointHighF,DewpointAvgF,DewpointLowF,HumidityHigh,HumidityAvg,HumidityLow,PressureMaxIn,PressureMinIn,WindSpeedMaxMPH,WindSpeedAvgMPH,GustSpeedMaxMPH,PrecipitationSumIn
2013-1-1,28,21,9,26,18,6,94,87,79,29.98,29.91,25,15,0,0.00
2013-1-2,25,21,19,22,18,14,91,86,79,30.20,29.98,22,17,0,0.00
2013-1-3,31,23,12,15,12,6,92,63,45,30.16,29.99,19,13,0,0.00
2013-1-4,34,28,15,23,16,7,76,61,46,29.99,29.91,20,13,0,0.00
2013-1-5,30,22,16,21,17,12,88,79,68,30.10,29.93,21,14,0,0.00
2013-1-6,36,26,16,27,20,14,90,76,59,30.02,29.74,20,11,0,0.00
2013-1-7,34,28,24,22,20,18,81,71,58,29.83,29.61,17,12,0,0.00
2013-1-8,37,30,23,31,26,15,96,84,70,29.94,29.55,22,16,0,0.00
2013-1-9,41,30,19,29,23,13,86,74,57,29.96,29.66,19,10,0,0.00
2013-1-10,38,29,16,30,25,15,98,85,66,29.63,29.47,19,9,0,0.00
2013-1-11,14,7,1,13,5,-2,95,91,88,29.91,29.61,24,16,0,0.00
2013-1-12,6,2,-4,1,-3,-9,87,80,70,30.06,29.94,23,11,0,0.00
2013-1-13,7,4,-1,4,1,-4,88,86,84,30.06,29.99,18,10,0,0.00
2013-1-14,19,10,1,13,5,-1,89,81,72,30.03,29.85,16,11,0,0.00
2013-1-15,37,30,20,31,26,14,95,86,74,29.83,29.73,33,24,0,0.00
2013-1-16,36,35,34,30,29,27,82,76,70,30.14,29.78,33,22,0,0.00
2013-1-17,38,32,25,30,26,23,95,80,63,30.20,29.82,17,12,0,0.00
2013-1-18,40,36,34,28,26,23,75,66,60,29.82,29.74,24,18,0,0.00
2013-1-19,34,20,11,27,16,8,91,84,76,30.21,29.85,21,11,0,0.00
2013-1-20,14,1,-8,12,-4,-16,90,78,66,30.40,30.13,16,12,0,0.00
2013-1-21,8,4,-3,4,-2,-9,89,78,59,30.24,30.03,12,6,0,0.00
2013-1-22,20,13,7,14,9,5,91,85,78,30.07,29.97,13,8,0,0.00
2013-1-23,10,6,1,6,2,-1,90,85,76,30.25,30.04,11,6,0,0.00
2013-1-24,37,28,12,27,22,9,86,77,64,29.95,29.80,22,16,0,0.00
2013-1-26,48,39,32,33,31,29,92,74,55,29.81,29.71,9,3,0,0.00
2013-1-27,33,32,29,30,28,25,97,85,76,29.75,29.65,17,10,0,0.00
2013-1-28,34,29,23,25,22,16,86,77,68,29.74,29.66,16,8,0,0.00
2013-1-29,25,10,-6,17,5,-12,89,81,68,30.06,29.63,28,17,0,0.00
2013-1-30,6,1,-5,1,-5,-10,83,78,71,29.95,29.81,17,7,0,0.00
2013-1-31,8,-4,-19,4,-11,-25,81,73,63,30.17,29.92,15,11,0,0.00
2013-2-1,34,27,14,32,25,9,97,89,80,29.98,29.81,21,15,0,0.00
2013-2-2,34,32,31,30,26,22,90,80,68,30.12,29.96,31,19,0,0.00
2013-2-3,38,31,20,28,25,18,95,76,63,29.94,29.74,24,16,0,0.00
2013-2-4,40,32,18,31,26,17,97,82,67,29.84,29.66,19,13,0,0.00
2013-2-5,36,32,26,30,26,22,87,79,68,29.90,29.65,20,9,0,0.00
2013-2-6,41,36,31,30,28,25,78,71,62,29.92,29.64,19,13,0,0.00
2013-2-7,41,34,28,29,25,22,79,70,56,30.01,29.89,18,9,0,0.00
2013-2-8,38,32,23,30,26,20,88,79,67,29.87,29.83,11,5,0,0.00
2013-2-9,40,30,23,25,22,17,89,74,39,29.85,29.74,11,6,0,0.00
2013-2-10,28,23,16,27,20,13,95,89,81,30.01,29.80,22,17,0,0.00
2013-2-11,32,22,9,20,16,7,92,78,59,30.00,29.81,16,12,0,0.00
2013-2-12,39,31,22,29,24,17,82,74,57,29.90,29.75,17,13,0,0.00
2013-2-13,40,36,29,32,27,20,88,72,63,29.87,29.63,26,20,0,0.00
2013-2-14,28,22,14,25,19,9,93,86,79,30.21,29.90,28,16,0,0.00
2013-2-15,36,26,16,26,18,11,82,71,60,30.24,29.90,17,9,0,0.00
2013-2-16,47,39,32,33,30,26,80,69,54,29.92,29.65,23,13,0,0.00
2013-2-17,39,34,27,31,28,24,96,80,60,29.76,29.53,24,17,0,0.00
2013-2-18,21,14,2,18,10,-1,91,86,72,30.11,29.87,16,10,0,0.00
2013-2-19,17,7,-5,8,1,-8,88,75,55,30.12,29.90,20,12,0,0.00
2013-2-20,22,14,5,12,6,0,82,72,59,29.89,29.83,12,6,0,0.00
2013-2-21,29,21,17,17,15,12,86,75,59,29.95,29.87,6,4,0,0.00
2013-2-22,41,28,15,26,19,13,92,70,43,29.84,29.64,11,7,0,0.00
2013-2-23,44,34,25,28,23,19,78,65,46,29.79,29.55,14,9,0,0.00
2013-2-24,39,31,25,27,21,14,94,69,36,30.01,29.84,21,13,0,0.00
2013-2-25,45,34,23,22,20,17,78,58,33,29.91,29.74,13,10,0,0.00
2013-2-26,36,32,26,28,25,20,89,76,52,30.07,29.76,25,15,0,0.00
2013-2-27,29,25,21,23,22,20,94,87,75,30.18,30.09,16,8,0,0.00
2013-2-28,41,30,19,28,22,18,96,76,39,30.15,30.06,15,8,0,0.00
2013-3-1,45,34,24,32,25,20,92,71,48,30.18,30.02,14,10,0,0.00
2013-3-2,54,46,40,33,32,31,72,60,44,30.03,29.82,20,10,0,0.00
2013-3-3,52,40,32,38,33,30,99,77,51,29.77,29.51,23,11,0,0.00
2013-3-4,27,17,9,24,15,6,93,90,82,30.24,29.61,32,25,0,0.00
2013-3-5,17,9,0,12,6,-2,93,86,76,30.28,30.15,14,6,0,0.00
2013-3-6,25,16,6,21,14,5,95,90,83,30.10,29.79,17,8,0,0.00
2013-3-7,32,24,14,29,22,13,96,90,81,30.05,29.78,18,7,0,0.00
2013-3-8,30,24,18,29,23,16,100,96,90,30.05,29.88,12,6,0,0.00
2013-3-9,32,26,16,30,24,15,100,91,71,30.16,29.84,20,11,0,0.00
2013-3-10,41,30,14,24,19,12,95,67,44,30.15,29.87,8,6,0,0.00
2013-3-11,37,30,19,28,22,15,85,71,53,30.13,29.80,30,22,0,0.00
2013-3-12,34,23,12,20,14,10,91,70,37,30.23,30.06,19,9,0,0.00
2013-3-13,60,40,27,37,29,18,93,68,38,30.04,29.90,14,10,0,0.00
2013-3-14,62,44,29,43,34,28,98,70,32,30.03,29.96,14,9,0,0.00
2013-3-15,37,29,20,36,28,18,100,96,83,30.05,29.81,25,9,0,0.00
2013-3-16,19,17,15,17,14,12,95,89,83,30.08,29.83,14,9,0,0.00
2013-3-17,29,20,4,27,18,-1,99,91,80,29.79,29.42,34,18,0,0.00
2013-3-18,27,13,-2,19,6,-6,83,74,59,29.91,29.78,24,11,0,0.00
2013-3-19,23,15,6,21,9,4,92,76,55,30.26,29.84,18,11,0,0.00
2013-3-20,38,28,11,20,14,7,81,58,37,30.22,29.72,21,12,0,0.00
2013-3-21,30,24,21,23,17,10,97,74,56,29.81,29.65,15,9,0,0.00
2013-3-22,24,20,15,24,18,13,98,91,82,30.03,29.77,18,10,0,0.00
2013-3-23,19,13,6,12,9,4,90,84,73,30.16,30.03,21,15,0,0.00
2013-3-24,18,11,5,13,8,2,91,86,79,30.25,30.15,17,10,0,0.00
2013-3-25,26,16,3,18,11,1,92,83,71,30.24,30.07,9,5,0,0.00
2013-3-26,40,27,13,28,20,9,93,79,62,30.06,29.94,8,5,0,0.00
2013-3-27,46,34,24,32,27,21,92,76,49,30.03,29.97,8,4,0,0.00
2013-3-28,52,39,28,34,30,27,94,73,44,30.06,30.01,11,5,0,0.00
2013-3-29,58,45,36,37,35,33,87,68,41,30.05,29.95,12,6,0,0.00
2013-3-30,52,41,31,37,28,-100,92,71,49,30.07,30.01,21,12,0,0.00
2013-3-31,32,28,21,25,22,19,90,79,59,30.15,29.97,12,6,0,0.00
2013-4-1,43,30,18,26,22,16,94,75,47,30.15,30.08,9,3,0,0.00
2013-4-2,56,39,25,28,25,21,88,61,29,30.11,29.90,11,7,0,0.00
2013-4-3,58,44,32,36,28,22,66,52,37,30.13,29.81,26,14,0,0.00
2013-4-4,43,33,25,33,28,21,97,83,65,30.16,29.92,12,8,0,0.00
2013-4-5,65,48,34,47,34,26,95,64,32,29.90,29.57,14,9,0,0.00
2013-4-6,48,43,37,43,38,34,94,82,64,29.78,29.68,15,10,0,0.00
2013-4-7,56,43,32,39,30,24,99,68,28,29.76,29.59,16,9,0,0.00
2013-4-8,29,20,11,29,17,8,98,86,70,30.27,29.74,20,15,0,0.00
2013-4-9,29,17,5,18,12,3,91,80,62,30.38,30.27,8,6,0,0.00
2013-4-10,36,26,16,22,18,12,84,73,50,30.28,29.87,12,7,0,0.00
2013-4-11,37,31,25,32,26,19,94,81,70,29.85,29.77,11,7,0,0.00
2013-4-12,40,32,27,33,29,26,97,87,65,29.92,29.84,16,8,0,0.00
2013-4-13,46,36,24,32,29,23,100,78,54,29.83,29.48,22,14,0,0.00
2013-4-14,31,24,22,30,22,21,99,94,90,29.86,29.55,20,17,0,0.00
2013-4-15,29,26,23,25,23,22,96,90,79,30.03,29.84,16,13,0,0.00
2013-4-16,27,24,20,23,21,19,97,87,75,30.23,30.02,9,7,0,0.00
2013-4-17,29,24,19,23,21,16,98,87,71,30.23,30.18,12,6,0,0.00
2013-4-18,39,28,15,31,20,14,94,73,44,30.16,29.96,10,7,0,0.00
2013-4-19,41,34,29,30,27,24,94,76,55,29.96,29.87,12,9,0,0.00
2013-4-20,55,39,29,42,33,22,97,81,53,29.86,29.75,13,8,0,0.00
2013-4-21,41,33,26,39,26,19,96,77,47,30.20,29.82,22,14,0,0.00
2013-4-22,35,27,19,18,14,9,91,61,35,30.35,30.21,12,9,0,0.00
2013-4-23,47,34,23,21,16,11,76,50,25,30.26,29.97,18,13,0,0.00
2013-4-24,44,39,32,28,23,19,78,54,38,30.06,29.93,22,14,0,0.00
2013-4-25,62,49,30,31,24,19,83,44,20,29.92,29.74,23,12,0,0.00
2013-4-26,72,59,44,29,26,21,50,30,16,30.01,29.87,16,11,0,0.00
2013-4-27,74,64,53,32,27,22,42,26,14,29.92,29.72,20,16,0,0.00
2013-4-28,62,55,46,35,27,20,57,37,21,29.90,29.74,16,9,0,0.00
2013-4-29,62,53,44,39,33,26,82,50,28,29.74,29.43,25,14,0,0.00
2013-4-30,39,34,27,28,24,19,85,66,50,30.16,29.55,30,21,0,0.00
2013-5-1,46,34,22,23,14,3,89,52,17,30.49,30.18,14,9,0,0.00
2013-5-2,58,44,27,19,14,9,60,32,14,30.50,30.27,9,5,0,0.00
2013-5-3,65,50,31,25,20,17,59,34,16,30.26,30.05,13,7,0,0.00
2013-5-4,61,51,36,25,19,16,56,31,17,30.24,30.16,12,7,0,0.00
2013-5-5,64,53,35,24,20,16,52,29,18,30.23,30.04,9,5,0,0.00
2013-5-6,70,57,42,31,24,22,57,30,16,30.06,29.90,11,6,0,0.00
2013-5-7,77,62,45,29,24,22,42,26,13,29.93,29.79,7,4,0,0.00
2013-5-8,64,54,41,41,36,28,86,54,33,30.14,29.91,13,10,0,0.00
2013-5-9,65,54,42,35,29,23,66,41,27,30.18,30.06,12,7,0,0.00
2013-5-10,63,52,43,44,27,-100,78,43,19,30.30,30.04,22,13,0,0.00
2013-5-11,61,45,34,24,18,-100,62,39,21,30.36,30.11,10,5,0,0.00
2013-5-12,82,62,37,40,30,17,52,31,18,30.12,29.79,13,8,0,0.00
2013-5-13,86,75,59,50,42,39,60,33,20,29.88,29.61,19,12,0,0.00
2013-5-14,69,62,52,55,36,26,95,43,20,29.89,29.65,34,16,0,0.00
2013-5-15,70,61,54,35,29,22,41,31,16,29.97,29.86,12,8,0,0.00
2013-5-16,66,51,52,50,20,-100,86,55,31,29.89,29.80,14,8,0,0.00
2013-5-17,68,57,51,52,39,-100,97,73,45,29.86,29.78,8,5,0,0.00
2013-5-18,70,61,52,55,50,47,95,71,44,29.85,29.78,13,7,0,0.00
2013-5-19,58,54,49,55,50,43,99,87,57,29.89,29.81,21,16,0,0.00
2013-5-20,55,49,47,50,47,46,97,93,83,29.99,29.86,26,20,0,0.00
2013-5-21,54,49,44,47,42,36,91,76,60,30.00,29.96,18,11,0,0.00
2013-5-22,66,55,46,45,38,27,95,58,25,30.08,30.00,22,12,0,0.00
2013-5-23,67,57,42,43,39,34,84,54,36,30.09,29.89,29,20,0,0.00
2013-5-24,69,59,53,49,41,34,83,55,28,29.97,29.79,19,12,0,0.00
2013-5-25,74,62,50,60,52,43,90,72,45,29.97,29.79,21,11,0,0.00
2013-5-26,74,64,53,58,54,50,98,72,43,29.94,29.81,13,7,0,0.00
2013-5-27,64,57,52,60,53,50,98,86,63,29.83,29.69,13,7,0,0.00
2013-5-28,69,59,49,55,51,47,97,75,45,29.71,29.65,12,8,0,0.00
2013-5-29,68,59,53,57,54,50,95,83,61,29.71,29.59,16,8,0,0.00
2013-5-30,58,52,49,55,52,48,99,97,85,29.61,29.51,21,16,0,0.00
2013-5-31,51,49,48,49,48,44,100,95,83,30.02,29.52,21,16,0,0.00
2013-6-1,62,52,40,44,37,-100,92,65,42,30.14,30.03,10,8,0,0.00
2013-6-2,68,58,44,47,42,38,84,59,33,30.09,29.82,14,8,0,0.00
2013-6-3,55,49,46,52,47,45,99,93,73,29.86,29.68,20,11,0,0.00
2013-6-4,52,47,43,47,43,42,99,88,68,30.16,29.84,19,13,0,0.00
2013-6-5,63,55,45,44,41,37,85,63,40,30.16,30.05,8,6,0,0.00
2013-6-6,72,60,46,52,46,42,90,62,38,30.05,29.95,9,4,0,0.00
2013-6-7,73,62,54,59,49,40,96,63,38,29.99,29.68,11,6,0,0.00
2013-6-8,67,59,53,55,50,45,96,74,47,29.88,29.66,25,16,0,0.00
2013-6-9,77,66,52,50,46,43,82,51,30,29.90,29.70,12,7,0,0.00
2013-6-10,72,63,53,53,48,41,94,63,32,29.91,29.74,12,6,0,0.00
2013-6-11,77,65,55,53,50,44,91,62,33,29.99,29.83,19,9,0,0.00
2013-6-12,71,62,53,55,54,52,96,75,56,30.07,29.92,15,10,0,0.00
2013-6-13,74,65,57,58,55,52,89,69,48,30.05,29.79,20,13,0,0.00
2013-6-14,68,61,55,57,49,38,95,67,36,29.93,29.78,24,15,0,0.00
2013-6-15,72,62,50,47,42,39,80,50,32,29.96,29.89,21,14,0,0.00
2013-6-16,72,63,52,51,46,41,78,54,37,30.07,29.95,20,13,0,0.00
2013-6-17,71,62,50,52,49,46,91,65,41,30.11,30.02,7,5,0,0.00
2013-6-18,81,68,52,57,54,50,96,64,36,30.06,29.82,16,9,0,0.00
2013-6-19,85,72,58,62,57,51,94,63,33,29.82,29.60,24,14,0,0.00
2013-6-20,72,61,55,62,55,42,98,85,34,29.87,29.60,14,10,0,0.00
2013-6-22,64,58,55,56,54,49,99,89,58,29.99,29.85,9,6,0,0.00
2013-6-23,72,64,51,53,50,47,99,64,41,29.86,29.75,16,10,0,0.00
2013-6-24,82,69,54,65,57,46,91,67,50,29.79,29.60,13,7,0,0.00
2013-6-25,77,68,61,65,56,50,93,66,38,29.79,29.60,20,10,0,0.00
2013-6-26,79,69,61,56,52,48,75,55,35,29.98,29.80,17,9,0,0.00
2013-6-27,78,70,58,52,48,42,76,49,31,30.14,30.00,17,12,0,0.00
2013-6-28,82,72,58,56,51,47,74,51,29,30.17,30.11,14,9,0,0.00
2013-6-29,79,72,59,57,50,41,76,51,28,30.17,30.08,10,7,0,0.00
2013-6-30,80,70,58,57,53,46,84,58,31,30.16,30.10,10,6,0,0.00
2013-7-1,83,71,59,59,55,50,84,60,32,30.19,30.09,8,5,0,0.00
2013-7-2,86,73,59,57,53,47,82,53,26,30.14,29.97,9,5,0,0.00
2013-7-3,91,76,58,69,57,51,83,55,28,29.98,29.74,10,7,0,0.00
2013-7-4,81,74,64,68,59,52,96,64,37,29.89,29.80,11,7,0,0.00
2013-7-5,85,72,62,64,60,57,91,69,42,29.82,29.72,17,6,0,0.00
2013-7-6,76,67,60,61,56,48,97,70,38,29.95,29.76,17,9,0,0.00
2013-7-7,78,68,59,61,58,53,94,70,50,29.98,29.90,11,7,0,0.00
2013-7-8,86,68,59,64,59,55,95,76,34,29.97,29.83,21,8,0,0.00
2013-7-9,71,64,56,59,56,54,97,77,54,30.13,29.96,19,10,0,0.00
2013-7-10,83,67,56,65,53,-100,94,69,43,30.13,29.90,9,5,0,0.00
2013-7-11,95,76,61,68,62,54,99,68,29,29.90,29.65,14,7,0,0.00
2013-7-12,84,75,68,63,52,39,72,49,20,29.85,29.75,14,9,0,0.00
2013-7-13,87,74,57,62,56,45,82,56,39,30.17,29.87,26,12,0,0.00
2013-7-14,71,62,52,55,52,49,93,70,49,30.23,30.12,14,10,0,0.00
2013-7-15,88,72,58,67,62,56,97,75,43,30.14,29.84,18,10,0,0.00
2013-7-16,72,65,59,66,56,51,92,73,53,30.19,29.89,20,11,0,0.00
2013-7-17,77,67,58,66,60,56,96,81,66,30.19,29.98,13,7,0,0.00
2013-7-18,86,77,63,64,52,40,94,48,20,30.03,29.93,19,13,0,0.00
2013-7-19,86,75,59,57,50,41,85,48,21,30.05,29.89,8,6,0,0.00
2013-7-20,80,67,56,64,56,54,94,72,41,29.99,29.85,12,6,0,0.00
2013-7-21,89,72,58,64,56,44,96,64,22,29.89,29.70,21,10,0,0.00
2013-7-22,78,67,56,56,54,48,91,65,35,29.94,29.84,13,8,0,0.00
2013-7-23,80,68,54,58,55,52,97,69,38,30.08,29.96,12,5,0,0.00
2013-7-24,83,70,58,61,54,49,88,61,31,30.10,29.96,21,6,0,0.00
2013-7-25,69,62,52,58,52,44,91,71,41,30.22,30.03,14,9,0,0.00
2013-7-26,68,57,46,50,46,43,99,70,41,30.29,30.15,12,7,0,0.00
2013-7-27,77,62,46,47,45,42,86,57,33,30.18,29.92,17,12,0,0.00
2013-7-28,75,63,49,61,50,41,77,65,50,29.94,29.83,15,7,0,0.00
2013-7-29,76,65,58,57,54,49,90,70,41,30.05,29.85,18,9,0,0.00
2013-7-30,73,65,56,57,54,49,96,69,45,30.15,30.05,12,6,0,0.00
2013-7-31,78,67,53,52,47,42,79,51,28,30.18,30.07,13,7,0,0.00
2013-8-1,77,69,53,53,46,43,75,47,30,30.11,29.94,13,8,0,0.00
2013-8-2,68,61,56,59,55,53,95,83,63,30.08,29.96,12,8,0,0.00
2013-8-3,80,65,52,61,56,52,98,77,42,30.12,29.95,15,8,0,0.00
2013-8-4,74,66,54,60,56,48,99,74,41,30.05,29.96,10,6,0,0.00
2013-8-5,80,69,57,58,54,49,85,62,37,30.01,29.79,14,6,0,0.00
2013-8-6,77,67,57,57,53,45,94,65,33,29.99,29.83,21,14,0,0.00
2013-8-7,70,60,53,53,50,43,97,74,40,30.05,29.99,13,7,0,0.00
2013-8-8,74,64,50,49,45,40,88,54,30,30.12,30.03,9,4,0,0.00
2013-8-9,74,62,51,51,48,45,90,62,37,30.18,30.10,12,6,0,0.00
2013-8-10,79,64,51,56,53,47,90,69,44,30.15,29.99,17,6,0,0.00
2013-8-11,80,65,53,59,56,53,100,76,43,30.12,30.02,11,7,0,0.00
2013-8-25,88,75,65,57,54,51,61,49,29,29.97,29.91,9,6,0,0.00
2013-8-26,91,76,66,59,56,52,74,53,27,29.90,29.85,11,4,0,0.00
2013-8-27,85,75,70,60,57,53,67,55,33,29.98,29.89,8,4,0,0.00
2013-8-28,86,82,72,65,64,63,77,56,45,29.96,29.92,11,11,0,0.00
2013-8-29,87,72,61,64,60,51,95,72,29,30.00,29.91,9,6,0,0.00
2013-8-30,89,80,68,59,53,50,66,43,28,29.99,29.87,9,7,0,0.00
2013-8-31,77,64,59,52,40,-100,70,48,23,30.06,29.89,22,14,0,0.00
2013-9-1,78,64,53,57,52,49,96,69,36,30.10,29.99,8,5,0,0.00
2013-9-2,92,70,54,53,49,39,94,54,16,30.01,29.88,10,4,0,0.00
2013-9-3,93,79,69,57,52,43,64,42,19,30.00,29.91,9,4,0,0.00
2013-9-4,86,75,65,61,58,49,72,56,37,30.09,30.02,13,7,0,0.00
2013-9-5,93,78,62,64,60,55,91,59,28,30.07,29.91,7,4,0,0.00
2013-9-6,88,78,68,65,61,54,90,60,32,29.99,29.92,11,7,0,0.00
2013-9-17,83,67,57,57,53,46,94,67,29,29.77,29.63,14,7,0,0.00
2013-9-18,59,57,53,57,53,46,95,89,78,29.83,29.62,14,10,0,0.00
2013-9-19,53,47,42,46,42,39,94,84,66,30.07,29.89,18,13,0,0.00
2013-9-20,68,56,43,40,37,34,81,54,29,30.07,29.88,7,6,0,0.00
2013-9-21,79,56,45,46,35,-100,76,54,22,29.85,29.61,11,5,0,0.00
2013-9-22,72,63,51,52,48,44,84,59,40,29.60,29.50,14,7,0,0.00
2013-9-23,68,58,51,50,42,30,79,57,28,29.85,29.58,17,10,0,0.00
2013-9-24,71,59,41,43,34,30,72,42,24,29.93,29.63,10,6,0,0.00
2013-9-25,61,54,48,48,45,42,97,73,52,29.65,29.60,12,9,0,0.00
2013-9-26,49,47,43,47,43,40,99,88,74,29.91,29.63,18,13,0,0.00
2013-9-27,50,44,40,39,35,30,88,71,46,29.91,29.84,10,9,0,0.00
2013-9-28,57,44,37,36,27,-100,91,62,39,29.81,29.76,20,11,0,0.00
2013-9-29,70,55,47,40,38,35,71,54,29,29.70,29.56,20,14,0,0.00
2013-9-30,62,51,47,42,37,35,69,61,40,29.68,29.49,16,10,0,0.00
2013-10-1,63,56,50,27,24,20,41,30,19,29.89,29.85,14,11,0,0.00
2013-10-2,58,52,46,35,28,24,59,40,28,30.02,29.90,16,10,0,0.00
2013-10-3,47,44,40,38,34,28,82,67,52,30.20,29.99,15,7,0,0.00
2013-10-4,38,35,29,34,28,24,89,74,60,30.29,30.24,16,13,0,0.00
2013-10-5,54,44,26,26,23,22,84,48,29,30.23,30.04,11,9,0,0.00
2013-10-6,68,54,44,35,33,31,60,47,28,30.03,29.96,16,12,0,0.00
2013-10-7,73,57,45,39,35,28,73,48,19,29.92,29.67,14,11,0,0.00
2013-10-8,61,55,49,35,30,26,48,40,26,29.88,29.63,12,10,0,0.00
2013-10-9,60,49,41,32,30,29,63,48,30,30.04,29.91,10,7,0,0.00
2013-10-10,60,49,42,40,37,34,75,67,47,29.93,29.69,8,5,0,0.00
2013-10-11,51,47,42,40,38,36,78,69,62,29.70,29.67,22,15,0,0.00
2013-10-12,51,38,32,29,17,-100,81,51,29,30.15,29.89,15,10,0,0.00
2013-10-13,54,47,32,26,24,22,65,42,29,30.21,30.11,16,10,0,0.00
2013-11-13,52,52,52,35,35,35,51,51,51,29.93,29.93,7,7,0,0.00
2013-11-14,40,38,36,29,28,28,76,70,63,29.87,29.70,17,12,0,0.00
2013-11-15,43,43,43,22,22,22,44,44,44,29.39,29.39,11,11,0,0.00
2013-11-16,35,28,34,28,2,-100,78,61,74,29.36,29.30,8,7,0,0.00
2013-11-17,29,29,29,25,25,25,83,83,83,29.81,29.81,12,12,0,0.00
2013-11-18,30,26,23,23,21,19,89,83,77,29.88,29.87,13,9,0,0.00
2013-11-19,42,33,18,30,25,16,92,72,54,29.70,29.56,16,8,0,0.00
2013-11-28,23,20,18,23,20,17,98,97,97,30.18,29.98,6,4,0,0.00
2013-11-29,36,36,36,28,28,28,74,74,74,29.99,29.99,8,8,0,0.00
2013-11-30,31,27,29,29,14,-100,94,83,92,30.03,30.01,5,3,0,0.00
2013-12-1,32,32,32,29,29,29,90,90,90,29.88,29.88,4,4,0,0.00
2013-12-2,38,29,20,35,28,19,98,94,86,29.67,29.52,14,8,0,0.00
2013-12-3,9,7,6,7,5,4,92,90,89,29.99,29.92,14,14,0,0.00
2013-12-4,2,0,-1,-2,-4,-5,86,84,81,30.05,30.03,17,16,0,0.00
2013-12-11,22,7,-1,13,0,-8,78,74,69,30.14,30.03,17,12,0,0.00
2013-12-12,35,30,26,25,21,18,72,69,68,30.00,29.94,16,12,0,0.00
2013-12-13,10,10,9,9,8,7,94,92,91,29.99,29.90,8,6,0,0.00
2013-12-14,19,11,9,16,-11,-100,90,72,89,30.06,29.89,13,6,0,0.00
2013-12-15,40,39,38,30,30,29,72,70,67,29.77,29.75,23,21,0,0.00
2013-12-16,31,30,30,29,29,28,94,93,92,30.02,29.96,20,15,0,0.00
2013-12-17,22,21,20,14,14,13,79,73,67,30.13,30.05,12,11,0,0.00
2013-12-18,41,37,33,28,26,25,73,64,57,29.68,29.61,22,14,0,0.00
2013-12-19,0,-3,-7,-3,-7,-11,85,82,77,30.06,29.95,13,10,0,0.00
2013-12-20,9,3,-3,2,-2,-8,84,81,74,29.71,29.61,10,4,0,0.00
2013-12-25,27,26,25,21,20,20,83,80,76,30.17,30.15,15,14,0,0.00
2013-12-26,36,34,31,28,25,24,77,73,65,30.04,29.96,21,16,0,0.00
2013-12-27,37,37,37,31,31,31,77,77,77,29.93,29.93,21,21,0,0.00
2013-12-28,-1,-1,-1,-6,-37,-100,78,52,78,30.35,30.32,15,13,0,0.00
2013-12-29,1,1,1,-2,-2,-2,85,85,85,30.12,30.12,12,12,0,0.00
2013-12-31,3,2,0,0,-1,-3,88,88,87,29.97,29.94,11,8,0,0.00
2014-1-1,12,7,2,9,4,-1,90,87,82,30.19,30.04,18,9,0,0.00
2014-1-2,19,16,12,18,14,10,95,94,94,30.07,29.87,10,7,0,0.00